CW1120 Weather Reports


Display with metric or nautical units.
time (UTC)temp
F
wind
direction
speed
MPH
gust
MPH
rain 1hr
in
rain 24hr
in
rain mn
in
humidity
%
barometer
mb
20260505160137 50 272 8.0 14.0 0.00 0.00 0.00 54 1011.2
20260505153127 51 284 11.0 13.0 0.00 0.00 0.00 52 1011.2
20260505152143 50 273 9.0 12.0 0.00 0.00 0.00 53 1011.2
20260505151133 50 275 6.0 13.0 0.00 0.00 0.00 51 1011.1
20260505150151 49 283 10.0 14.0 0.00 0.00 0.00 55 1011.2
20260505140146 49 284 9.0 15.0 0.00 0.00 0.00 52 1011.3
20260505130154 49 287 11.0 20.0 0.00 0.00 0.00 52 1011.2
20260505124146 49 290 12.0 20.0 0.00 0.00 0.00 53 1011.4
20260505123140 49 297 12.0 18.0 0.00 0.00 0.00 58 1011.4
20260505122130 49 297 7.0 17.0 0.00 0.00 0.00 58 1011.4
20260505121152 49 329 12.0 20.0 0.00 0.00 0.00 56 1011.4
20260505120127 49 328 10.0 16.0 0.00 0.00 0.00 59 1011.3
20260505115140 49 286 11.0 18.0 0.00 0.00 0.00 60 1011.3
20260505114131 49 276 10.0 20.0 0.00 0.00 0.00 59 1011.4
20260505113134 49 240 12.0 17.0 0.00 0.00 0.00 59 1011.3
20260505112127 49 280 10.0 17.0 0.00 0.00 0.00 60 1011.3
20260505111150 49 284 10.0 17.0 0.00 0.00 0.00 59 1011.3
20260505110142 49 294 11.0 16.0 0.00 0.00 0.00 56 1011.3
20260505102137 49 303 8.0 17.0 0.00 0.00 0.00 55 1011.1
20260505101156 49 271 8.0 17.0 0.00 0.00 0.00 59 1011.2
20260505100128 48 284 10.0 17.0 0.00 0.00 0.00 57 1011.1
20260505095127 48 269 11.0 20.0 0.00 0.00 0.00 59 1011.2
20260505094139 48 279 13.0 18.0 0.00 0.00 0.00 57 1011.3
20260505093132 48 278 9.0 15.0 0.00 0.00 0.00 55 1011.0
20260505092132 48 252 10.0 16.0 0.00 0.00 0.00 57 1011.0
20260505091145 48 315 5.0 17.0 0.00 0.00 0.00 55 1011.0
20260505090137 48 307 14.0 18.0 0.00 0.00 0.00 55 1011.1
20260505085130 48 267 12.0 17.0 0.00 0.00 0.00 53 1010.9
20260505084152 48 290 8.0 15.0 0.00 0.00 0.00 54 1010.8
20260505083204 48 281 9.0 15.0 0.00 0.00 0.00 53 1010.6
20260505082141 48 308 7.0 15.0 0.00 0.00 0.00 54 1010.4
20260505081127 48 312 8.0 16.0 0.00 0.00 0.00 53 1010.4
20260505080145 48 275 8.0 16.0 0.00 0.00 0.00 55 1010.4
20260505075204 48 290 10.0 16.0 0.00 0.00 0.00 56 1010.3
20260505074134 47 348 5.0 18.0 0.00 0.00 0.00 52 1010.3
20260505073145 47 317 6.0 19.0 0.00 0.00 0.00 54 1010.3
20260505072147 48 297 8.0 19.0 0.00 0.00 0.00 52 1010.3
20260505071155 48 303 9.0 16.0 0.00 0.00 0.00 55 1010.2
20260505070138 48 275 5.0 11.0 0.00 0.00 0.00 54 1010.1
20260505065152 48 325 6.0 11.0 0.00 0.00 0.00 55 1010.1
20260505064134 48 325 6.0 10.0 0.00 0.00 0.00 55 1010.0
20260505063145 48 325 5.0 13.0 0.00 0.00 0.00 54 1009.9
20260505062133 47 339 6.0 11.0 0.00 0.00 0.00 57 1009.9
20260505061132 46 303 5.0 11.0 0.00 0.00 0.00 56 1009.9
20260505060144 46 313 8.0 15.0 0.00 0.00 0.00 58 1009.9
20260505055147 46 333 9.0 14.0 0.00 0.00 0.00 59 1009.8
20260505054136 47 284 4.0 9.0 0.00 0.00 0.00 60 1009.8
20260505053129 46 17 0.0 6.0 0.00 0.00 0.00 61 1009.7
20260505052149 45 15 1.0 5.0 0.00 0.00 0.00 62 1009.6
20260505051140 45 328 0.0 8.0 0.00 0.00 0.00 64 1009.5
20260505050126 43 33 2.0 10.0 0.00 0.00 0.00 73 1009.4
20260505041141 40 5 2.0 5.0 0.00 0.00 0.00 77 1009.1
20260505040140 41 19 0.0 3.0 0.00 0.00 0.00 75 1009.0
20260505035133 42 9 2.0 4.0 0.00 0.00 0.00 73 1008.9
20260505034145 43 355 1.0 7.0 0.00 0.00 0.00 73 1008.8
20260505033148 43 322 2.0 5.0 0.00 0.00 0.00 73 1008.8
20260505032133 43 338 3.0 8.0 0.00 0.00 0.00 73 1008.6
20260505031153 44 323 3.0 9.0 0.00 0.00 0.00 73 1008.6
20260505030147 44 317 4.0 9.0 0.00 0.00 0.00 73 1008.5
20260505025134 44 327 4.0 12.0 0.00 0.00 0.00 73 1008.4
20260505024155 44 319 5.0 10.0 0.00 0.00 0.00 74 1008.4
20260505023126 45 9 5.0 12.0 0.00 0.00 0.00 74 1008.6
20260505022137 45 303 6.0 14.0 0.00 0.00 0.00 75 1008.5
20260505021128 46 297 7.0 17.0 0.00 0.00 0.00 75 1008.5
20260505020200 46 325 12.0 18.0 0.00 0.00 0.00 76 1008.4
20260505015211 46 311 9.0 19.0 0.00 0.00 0.00 76 1008.4
20260505014131 46 275 11.0 21.0 0.00 0.00 0.00 77 1008.4
20260505013140 46 313 14.0 21.0 0.00 0.00 0.00 78 1008.3
20260505012137 46 310 12.0 17.0 0.00 0.00 0.00 79 1008.3
20260505011126 46 296 12.0 20.0 0.00 0.00 0.00 85 1008.2
20260505010136 47 283 14.0 26.0 0.00 0.00 0.00 90 1008.2
20260505005139 47 277 17.0 26.0 0.00 0.00 0.00 90 1008.3
20260505004150 47 252 16.0 26.0 0.00 0.00 0.00 90 1008.3
20260505003139 47 289 17.0 28.0 0.00 0.00 0.00 91 1008.3
20260505002132 47 273 18.0 27.0 0.00 0.00 0.00 91 1008.3
20260505001127 47 288 21.0 28.0 0.00 0.00 0.00 91 1008.2
20260505000136 47 293 17.0 28.0 0.00 0.00 0.00 91 1008.1
20260504235134 47 285 22.0 30.0 0.00 0.00 0.00 91 1008.1
20260504234139 48 288 19.0 29.0 0.00 0.00 0.00 90 1008.2
20260504233132 48 286 18.0 33.0 0.00 0.00 0.00 90 1008.0
20260504232150 48 297 21.0 30.0 0.00 0.00 0.00 90 1008.0
20260504231149 48 269 15.0 26.0 0.00 0.00 0.00 90 1008.2
20260504230200 48 277 18.0 26.0 0.00 0.00 0.00 91 1008.2
20260504225141 48 271 18.0 33.0 0.00 0.00 0.00 90 1008.1
20260504224133 48 273 19.0 29.0 0.00 0.00 0.00 90 1007.9
20260504223127 48 252 20.0 33.0 0.00 0.00 0.00 90 1007.9
20260504222151 48 269 20.0 31.0 0.00 0.00 0.00 90 1008.0
20260504221127 48 281 22.0 30.0 0.00 0.00 0.00 89 1008.0
20260504220150 48 267 21.0 30.0 0.00 0.00 0.00 90 1007.9
20260504215204 48 291 19.0 30.0 0.00 0.00 0.00 90 1007.9
20260504214136 49 311 22.0 29.0 0.00 0.00 0.00 91 1007.9
20260504213159 49 263 20.0 27.0 0.00 0.00 0.00 91 1007.9
20260504212133 49 279 19.0 30.0 0.00 0.00 0.00 91 1007.9
20260504211138 49 254 17.0 29.0 0.00 0.00 0.00 91 1007.9
20260504210153 49 260 18.0 29.0 0.00 0.00 0.00 90 1007.7
20260504205132 49 261 18.0 31.0 0.00 0.00 0.00 90 1007.9
20260504204145 49 247 20.0 30.0 0.00 0.00 0.00 91 1007.9
20260504203135 49 265 22.0 34.0 0.00 0.00 0.00 91 1007.8
20260504202138 49 292 21.0 30.0 0.00 0.00 0.00 91 1007.9
20260504201133 49 265 23.0 31.0 0.00 0.00 0.00 91 1007.9
20260504200158 49 273 23.0 30.0 0.00 0.00 0.00 92 1007.9
20260504195129 49 263 25.0 34.0 0.00 0.00 0.00 91 1007.9
20260504194130 49 245 21.0 33.0 0.00 0.00 0.00 91 1007.8
20260504193143 49 256 28.0 33.0 0.00 0.00 0.00 91 1007.8
20260504192147 49 248 25.0 32.0 0.00 0.00 0.00 91 1007.8
20260504191143 49 246 19.0 32.0 0.00 0.00 0.00 91 1007.7
20260504190134 49 278 22.0 33.0 0.00 0.00 0.00 91 1007.7
20260504185128 49 254 22.0 31.0 0.00 0.00 0.00 91 1007.7
20260504184145 49 247 22.0 30.0 0.00 0.00 0.00 91 1007.8
20260504183138 50 251 24.0 29.0 0.00 0.00 0.00 90 1007.8
20260504182142 50 248 23.0 32.0 0.00 0.00 0.00 90 1007.7
20260504181138 50 258 24.0 30.0 0.00 0.00 0.00 89 1007.7
20260504180141 50 250 18.0 29.0 0.00 0.00 0.00 89 1007.7
20260504175135 50 263 21.0 31.0 0.00 0.00 0.00 88 1007.7
20260504174129 51 248 24.0 32.0 0.00 0.00 0.00 89 1007.9
20260504173151 51 272 25.0 33.0 0.00 0.00 0.00 88 1007.9
20260504172142 51 240 26.0 31.0 0.00 0.00 0.00 88 1007.8
20260504171139 51 252 22.0 30.0 0.00 0.00 0.00 89 1007.8
20260504170153 51 243 26.0 31.0 0.00 0.00 0.00 87 1007.8